This demonstration page uses our WeatherBlox Daily Observations layout. Learn more.

38.88101, -77.10428

Hourly Observations for October 3, 2016

Temp ( °F °C ) Dew Point ( °F °C ) Humidity (%) Winds ( mph kmh ) Pressure ( in mb ) Visibility ( mi km ) Precip ( " mm )
12:52 am 00:52 Cloudy 68 20 66 18.9 93 93 SE 3 6 30.03 1017 10 16.09344 0 0
1:52 am 01:52 Cloudy 68 20 66 18.9 93 93 Calm 30.03 1017 10 16.09344 0 0
2:52 am 02:52 Mostly Cloudy 67 19.4 66 18.9 97 97 WSW 3 6 30 1016 10 16.09344 0 0
3:16 am 03:16 Cloudy 66 19 66 19 100 100 Calm 30 1016 10 16.09344 0 0
3:52 am 03:52 Cloudy 67 19.4 66 18.9 97 97 Calm 30 1016 8 12.874752 0 0
4:52 am 04:52 Mostly Cloudy 66 18.9 65 18.3 96 96 NNE 5 7 30 1016 9 14.484096 0 0
5:52 am 05:52 Mostly Clear 64 17.8 63 17.2 96 96 NNW 6 9 30.03 1017 10 16.09344 0 0
6:52 am 06:52 Partly Cloudy 64 17.8 62 16.7 93 93 NNE 5 7 30.03 1017 10 16.09344 0 0
7:52 am 07:52 Mostly Cloudy 66 18.9 63 17.2 90 90 N 7 11 30.03 1017 10 16.09344 0 0
8:52 am 08:52 Mostly Cloudy 68 20 61 16.1 78 78 NNW 9 15 30.03 1017 10 16.09344 0 0
9:52 am 09:52 Partly Cloudy 71 21.7 60 15.6 68 68 NNW 12 19 30.06 1018 10 16.09344 0 0
10:52 am 10:52 Partly Cloudy 73 22.8 59 15 62 62 N 9 15 30.06 1018 10 16.09344 0 0
11:52 am 11:52 Partly Cloudy 75 23.9 57 13.9 54 54 NW 12 19 30.06 1018 10 16.09344 0 0
12:52 pm 12:52 Partly Cloudy 76 24.4 56 13.3 50 50 NNW 6 9 30.06 1018 10 16.09344 0 0
1:52 pm 13:52 Partly Cloudy 76 24.4 54 12.2 47 47 NW 14 22 30.03 1017 10 16.09344 0 0
2:52 pm 14:52 Partly Cloudy 75 23.9 51 10.6 43 43 NNW 10 17 30.03 1017 10 16.09344 0 0
3:52 pm 15:52 Partly Cloudy 77 25 54 12.2 45 45 WNW 7 11 30.03 1017 10 16.09344 0 0
4:52 pm 16:52 Partly Cloudy 76 24.4 54 12.2 47 47 N 10 17 30.03 1017 10 16.09344 0 0
5:52 pm 17:52 Partly Cloudy 75 23.9 54 12.2 48 48 N 9 15 30.03 1017 10 16.09344 0 0
6:52 pm 18:52 Partly Cloudy 71 21.7 54 12.2 55 55 N 7 11 30.06 1018 10 16.09344 0 0
7:52 pm 19:52 Partly Cloudy 70 21.1 56 13.3 61 61 N 7 11 30.06 1018 10 16.09344 0 0
8:52 pm 20:52 Clear 68 20 57 13.9 68 68 N 6 9 30.09 1019 10 16.09344 0 0
9:52 pm 21:52 Mostly Clear 66 18.9 58 14.4 75 75 N 6 9 30.09 1019 10 16.09344 0 0
10:52 pm 22:52 Mostly Clear 66 18.9 60 15.6 81 81 NNE 5 7 30.09 1019 10 16.09344 0 0
11:52 pm 23:52 Mostly Clear 64 17.8 58 14.4 81 81 N 5 7 30.12 1020 10 16.09344 0 0

Powered by AerisWeather